Time,TemperatureF,DewpointF,PressureIn,WindDirection,WindDirectionDegrees,WindSpeedMPH,WindSpeedGustMPH,Humidity,HourlyPrecipIn,Conditions,Clouds,dailyrainin,SolarRadiationWatts/m^2,SoftwareType,DateUTC
2017-07-24 00:01:00,63.0,53.8,28.81,North,0,3.0,14.0,72,0.00,,,0.00,0.0,meteohub,2017-07-24 07:01:00,
2017-07-24 00:06:00,63.0,53.8,28.81,North,0,4.0,12.0,72,0.00,,,0.00,0.0,meteohub,2017-07-24 07:06:00,
2017-07-24 00:12:00,62.6,53.4,28.81,North,0,4.0,12.0,72,0.00,,,0.00,0.0,meteohub,2017-07-24 07:12:00,
2017-07-24 00:17:00,62.4,53.6,28.81,North,0,5.0,11.0,73,0.00,,,0.00,0.0,meteohub,2017-07-24 07:17:00,
2017-07-24 00:22:00,62.2,53.4,28.81,North,0,0.0,13.0,73,0.00,,,0.00,0.0,meteohub,2017-07-24 07:22:00,
2017-07-24 00:27:00,62.2,53.4,28.82,North,0,0.0,13.0,73,0.00,,,0.00,0.0,meteohub,2017-07-24 07:27:00,
2017-07-24 00:32:00,62.1,53.2,28.82,North,0,3.0,13.0,73,0.00,,,0.00,0.0,meteohub,2017-07-24 07:32:00,
2017-07-24 00:34:00,62.1,53.2,28.82,North,0,0.0,8.0,73,0.00,,,0.00,0.0,meteohub,2017-07-24 07:34:00,
2017-07-24 00:39:00,61.9,53.1,28.82,North,0,0.0,4.0,73,0.00,,,0.00,0.0,meteohub,2017-07-24 07:39:00,
2017-07-24 00:44:00,61.9,53.4,28.82,North,0,0.0,4.0,74,0.00,,,0.00,0.0,meteohub,2017-07-24 07:44:00,
2017-07-24 00:49:00,61.7,53.2,28.82,North,0,0.0,0.0,74,0.00,,,0.00,0.0,meteohub,2017-07-24 07:49:00,
2017-07-24 00:54:00,61.5,53.2,28.82,North,0,0.0,0.0,74,0.00,,,0.00,0.0,meteohub,2017-07-24 07:54:00,
2017-07-24 00:57:00,61.3,53.1,28.82,North,0,0.0,0.0,74,0.00,,,0.00,0.0,meteohub,2017-07-24 07:57:00,
2017-07-24 01:02:00,61.3,53.4,28.82,North,0,0.0,0.0,75,0.00,,,0.00,0.0,meteohub,2017-07-24 08:02:00,
2017-07-24 01:07:00,61.0,53.4,28.82,North,0,0.0,0.0,76,0.00,,,0.00,0.0,meteohub,2017-07-24 08:07:00,
2017-07-24 01:12:00,61.0,53.4,28.82,North,0,0.0,0.0,76,0.00,,,0.00,0.0,meteohub,2017-07-24 08:12:00,
2017-07-24 01:13:00,61.0,53.4,28.82,North,0,0.0,0.0,76,0.00,,,0.00,0.0,meteohub,2017-07-24 08:13:00,
2017-07-24 01:18:00,60.6,52.3,28.82,North,0,2.0,2.0,74,0.00,,,0.00,0.0,meteohub,2017-07-24 08:18:00,
2017-07-24 01:23:00,60.4,52.2,28.82,North,0,5.0,5.0,74,0.00,,,0.00,0.0,meteohub,2017-07-24 08:23:00,
2017-07-24 01:28:00,60.3,51.6,28.82,North,0,0.0,6.0,73,0.00,,,0.00,0.0,meteohub,2017-07-24 08:28:00,
2017-07-24 01:34:00,60.3,51.6,28.82,North,0,0.0,6.0,73,0.00,,,0.00,0.0,meteohub,2017-07-24 08:34:00,
2017-07-24 01:39:00,60.1,51.8,28.82,North,0,0.0,6.0,74,0.00,,,0.00,0.0,meteohub,2017-07-24 08:39:00,
2017-07-24 01:44:00,60.1,52.2,28.83,North,0,0.0,0.0,75,0.00,,,0.00,0.0,meteohub,2017-07-24 08:44:00,
2017-07-24 01:49:00,59.7,52.2,28.82,North,0,0.0,0.0,76,0.00,,,0.00,0.0,meteohub,2017-07-24 08:49:00,
2017-07-24 01:54:00,59.5,51.3,28.82,North,0,5.0,5.0,74,0.00,,,0.00,0.0,meteohub,2017-07-24 08:54:00,
2017-07-24 01:59:00,59.5,50.5,28.82,North,0,0.0,6.0,72,0.00,,,0.00,0.0,meteohub,2017-07-24 08:59:00,
2017-07-24 02:04:00,59.5,51.3,28.82,North,0,0.0,6.0,74,0.00,,,0.00,0.0,meteohub,2017-07-24 09:04:00,
2017-07-24 02:09:00,59.5,50.9,28.83,North,0,0.0,6.0,73,0.00,,,0.00,0.0,meteohub,2017-07-24 09:09:00,
2017-07-24 02:14:00,59.4,50.4,28.83,North,0,6.0,8.0,72,0.00,,,0.00,0.0,meteohub,2017-07-24 09:14:00,
2017-07-24 02:20:00,59.4,50.4,28.83,North,0,8.0,11.0,72,0.00,,,0.00,0.0,meteohub,2017-07-24 09:20:00,
2017-07-24 02:25:00,59.4,50.0,28.83,North,0,3.0,11.0,71,0.00,,,0.00,0.0,meteohub,2017-07-24 09:25:00,
2017-07-24 02:30:00,59.2,49.8,28.83,North,0,10.0,12.0,71,0.00,,,0.00,0.0,meteohub,2017-07-24 09:30:00,
2017-07-24 02:35:00,59.4,50.0,28.83,North,0,10.0,12.0,71,0.00,,,0.00,0.0,meteohub,2017-07-24 09:35:00,
2017-07-24 02:40:00,59.2,50.2,28.83,North,0,8.0,13.0,72,0.00,,,0.00,0.0,meteohub,2017-07-24 09:40:00,
2017-07-24 02:45:00,58.8,49.8,28.83,North,0,13.0,16.0,72,0.00,,,0.00,0.0,meteohub,2017-07-24 09:45:00,
2017-07-24 02:50:00,58.6,49.3,28.83,North,0,9.0,16.0,71,0.00,,,0.00,0.0,meteohub,2017-07-24 09:50:00,
2017-07-24 02:55:00,58.8,49.5,28.83,North,0,12.0,16.0,71,0.00,,,0.00,0.0,meteohub,2017-07-24 09:55:00,
2017-07-24 03:01:00,58.6,49.3,28.83,North,0,13.0,15.0,71,0.00,,,0.00,0.0,meteohub,2017-07-24 10:01:00,
2017-07-24 03:06:00,58.6,49.3,28.83,North,0,12.0,15.0,71,0.00,,,0.00,0.0,meteohub,2017-07-24 10:06:00,
2017-07-24 03:10:00,58.6,49.3,28.83,North,0,15.0,18.0,71,0.00,,,0.00,0.0,meteohub,2017-07-24 10:10:00,
2017-07-24 03:15:00,58.5,49.1,28.84,North,0,10.0,18.0,71,0.00,,,0.00,0.0,meteohub,2017-07-24 10:15:00,
2017-07-24 03:20:00,58.5,49.1,28.84,North,0,14.0,18.0,71,0.00,,,0.00,0.0,meteohub,2017-07-24 10:20:00,
2017-07-24 03:25:00,58.3,49.3,28.84,North,0,12.0,17.0,72,0.00,,,0.00,0.0,meteohub,2017-07-24 10:25:00,
2017-07-24 03:31:00,58.5,49.5,28.84,North,0,13.0,17.0,72,0.00,,,0.00,0.0,meteohub,2017-07-24 10:31:00,
2017-07-24 03:36:00,58.1,49.1,28.84,North,0,14.0,17.0,72,0.00,,,0.00,0.0,meteohub,2017-07-24 10:36:00,
2017-07-24 03:41:00,58.1,49.5,28.83,North,0,14.0,16.0,73,0.00,,,0.00,0.0,meteohub,2017-07-24 10:41:00,
2017-07-24 03:46:00,57.9,49.3,28.84,North,0,12.0,17.0,73,0.00,,,0.00,0.0,meteohub,2017-07-24 10:46:00,
2017-07-24 03:51:00,57.7,49.1,28.84,North,0,11.0,17.0,73,0.00,,,0.00,0.0,meteohub,2017-07-24 10:51:00,
2017-07-24 03:56:00,57.6,49.3,28.84,North,0,12.0,17.0,74,0.00,,,0.00,0.0,meteohub,2017-07-24 10:56:00,
2017-07-24 04:01:00,57.4,49.1,28.84,North,0,12.0,14.0,74,0.00,,,0.00,0.0,meteohub,2017-07-24 11:01:00,
2017-07-24 04:06:00,57.4,49.1,28.84,North,0,13.0,14.0,74,0.00,,,0.00,0.0,meteohub,2017-07-24 11:06:00,
2017-07-24 04:11:00,57.4,49.5,28.84,North,0,13.0,15.0,75,0.00,,,0.00,0.0,meteohub,2017-07-24 11:11:00,
2017-07-24 04:16:00,57.2,48.6,28.84,North,0,12.0,15.0,73,0.00,,,0.00,0.0,meteohub,2017-07-24 11:16:00,
2017-07-24 04:22:00,57.2,48.6,28.84,North,0,13.0,15.0,73,0.00,,,0.00,0.0,meteohub,2017-07-24 11:22:00,
2017-07-24 04:27:00,57.2,49.3,28.84,North,0,13.0,16.0,75,0.00,,,0.00,0.0,meteohub,2017-07-24 11:27:00,
2017-07-24 04:32:00,56.8,48.9,28.84,North,0,13.0,16.0,75,0.00,,,0.00,0.0,meteohub,2017-07-24 11:32:00,
2017-07-24 04:37:00,56.8,49.6,28.84,North,0,13.0,16.0,77,0.00,,,0.00,0.0,meteohub,2017-07-24 11:37:00,
2017-07-24 04:42:00,56.7,48.7,28.84,North,0,12.0,16.0,75,0.00,,,0.00,0.0,meteohub,2017-07-24 11:42:00,
2017-07-24 04:47:00,56.8,48.9,28.84,North,0,10.0,15.0,75,0.00,,,0.00,0.0,meteohub,2017-07-24 11:47:00,
2017-07-24 04:52:00,56.7,49.1,28.84,North,0,10.0,16.0,76,0.00,,,0.00,0.0,meteohub,2017-07-24 11:52:00,
2017-07-24 04:57:00,56.7,49.1,28.84,North,0,13.0,17.0,76,0.00,,,0.00,0.0,meteohub,2017-07-24 11:57:00,
2017-07-24 05:02:00,56.5,49.3,28.84,North,0,15.0,17.0,77,0.00,,,0.00,0.0,meteohub,2017-07-24 12:02:00,
2017-07-24 05:07:00,56.1,48.4,28.84,North,0,14.0,17.0,75,0.00,,,0.00,0.0,meteohub,2017-07-24 12:07:00,
2017-07-24 05:13:00,56.1,48.7,28.84,North,0,14.0,17.0,76,0.00,,,0.00,0.0,meteohub,2017-07-24 12:13:00,
2017-07-24 05:18:00,56.1,48.7,28.84,North,0,13.0,16.0,76,0.00,,,0.00,0.0,meteohub,2017-07-24 12:18:00,
2017-07-24 05:23:00,56.1,48.7,28.84,North,0,14.0,15.0,76,0.00,,,0.00,0.0,meteohub,2017-07-24 12:23:00,
2017-07-24 05:28:00,56.1,48.4,28.85,North,0,13.0,16.0,75,0.00,,,0.00,0.0,meteohub,2017-07-24 12:28:00,
2017-07-24 05:33:00,56.1,48.4,28.85,North,0,13.0,16.0,75,0.00,,,0.00,5.0,meteohub,2017-07-24 12:33:00,
2017-07-24 05:38:00,55.9,48.6,28.85,North,0,13.0,16.0,76,0.00,,,0.00,5.0,meteohub,2017-07-24 12:38:00,
2017-07-24 05:43:00,55.9,49.1,28.85,North,0,13.0,16.0,78,0.00,,,0.00,7.0,meteohub,2017-07-24 12:43:00,
2017-07-24 05:48:00,55.8,48.7,28.85,North,0,13.0,16.0,77,0.00,,,0.00,9.0,meteohub,2017-07-24 12:48:00,
2017-07-24 05:53:00,55.8,48.0,28.85,North,0,8.0,16.0,75,0.00,,,0.00,9.0,meteohub,2017-07-24 12:53:00,
2017-07-24 05:58:00,55.8,48.0,28.85,North,0,11.0,14.0,75,0.00,,,0.00,11.0,meteohub,2017-07-24 12:58:00,
2017-07-24 06:04:00,55.8,48.0,28.85,North,0,10.0,15.0,75,0.00,,,0.00,12.0,meteohub,2017-07-24 13:04:00,
2017-07-24 06:09:00,55.8,48.9,28.86,North,0,14.0,18.0,78,0.00,,,0.00,12.0,meteohub,2017-07-24 13:09:00,
2017-07-24 06:14:00,55.6,48.2,28.86,North,0,15.0,18.0,76,0.00,,,0.00,14.0,meteohub,2017-07-24 13:14:00,
2017-07-24 06:19:00,55.4,48.4,28.86,North,0,12.0,18.0,77,0.00,,,0.00,14.0,meteohub,2017-07-24 13:19:00,
2017-07-24 06:24:00,55.2,47.8,28.86,North,0,12.0,18.0,76,0.00,,,0.00,16.0,meteohub,2017-07-24 13:24:00,
2017-07-24 06:29:00,55.0,48.4,28.86,North,0,13.0,16.0,78,0.00,,,0.00,18.0,meteohub,2017-07-24 13:29:00,
2017-07-24 06:34:00,55.2,47.8,28.86,North,0,14.0,16.0,76,0.00,,,0.00,18.0,meteohub,2017-07-24 13:34:00,
2017-07-24 06:39:00,55.2,48.2,28.86,North,0,13.0,17.0,77,0.00,,,0.00,19.0,meteohub,2017-07-24 13:39:00,
2017-07-24 06:44:00,55.2,47.8,28.86,North,0,15.0,17.0,76,0.00,,,0.00,21.0,meteohub,2017-07-24 13:44:00,
2017-07-24 06:49:00,55.2,47.1,28.86,North,0,13.0,17.0,74,0.00,,,0.00,25.0,meteohub,2017-07-24 13:49:00,
2017-07-24 06:54:00,55.0,47.3,28.86,North,0,13.0,17.0,75,0.00,,,0.00,26.0,meteohub,2017-07-24 13:54:00,
2017-07-24 06:59:00,55.2,48.2,28.86,North,0,13.0,18.0,77,0.00,,,0.00,28.0,meteohub,2017-07-24 13:59:00,
2017-07-24 07:04:00,55.2,47.8,28.87,North,0,12.0,18.0,76,0.00,,,0.00,28.0,meteohub,2017-07-24 14:04:00,
2017-07-24 07:10:00,55.2,47.8,28.86,North,0,14.0,18.0,76,0.00,,,0.00,30.0,meteohub,2017-07-24 14:10:00,
2017-07-24 07:15:00,55.0,47.7,28.86,North,0,14.0,18.0,76,0.00,,,0.00,30.0,meteohub,2017-07-24 14:15:00,
2017-07-24 07:20:00,55.0,48.6,28.87,North,0,13.0,16.0,79,0.00,,,0.00,32.0,meteohub,2017-07-24 14:20:00,
2017-07-24 07:25:00,55.0,48.0,28.87,North,0,15.0,16.0,77,0.00,,,0.00,32.0,meteohub,2017-07-24 14:25:00,
2017-07-24 07:30:00,55.0,46.9,28.87,North,0,12.0,17.0,74,0.00,,,0.00,33.0,meteohub,2017-07-24 14:30:00,
2017-07-24 07:35:00,55.2,47.5,28.86,North,0,13.0,17.0,75,0.00,,,0.00,33.0,meteohub,2017-07-24 14:35:00,
2017-07-24 07:40:00,55.6,48.2,28.86,North,0,12.0,16.0,76,0.00,,,0.00,33.0,meteohub,2017-07-24 14:40:00,
2017-07-24 07:45:00,55.9,48.6,28.86,North,0,14.0,16.0,76,0.00,,,0.00,35.0,meteohub,2017-07-24 14:45:00,
2017-07-24 07:50:00,56.3,47.8,28.86,North,0,12.0,15.0,73,0.00,,,0.00,35.0,meteohub,2017-07-24 14:50:00,
2017-07-24 07:55:00,56.8,48.2,28.86,North,0,13.0,16.0,73,0.00,,,0.00,35.0,meteohub,2017-07-24 14:55:00,
2017-07-24 08:00:00,56.8,48.9,28.86,North,0,12.0,16.0,75,0.00,,,0.00,37.0,meteohub,2017-07-24 15:00:00,
2017-07-24 08:06:00,57.0,49.1,28.86,North,0,12.0,16.0,75,0.00,,,0.00,44.0,meteohub,2017-07-24 15:06:00,
2017-07-24 08:11:00,57.4,49.1,28.86,North,0,13.0,16.0,74,0.00,,,0.00,91.0,meteohub,2017-07-24 15:11:00,
2017-07-24 08:16:00,57.6,49.3,28.86,North,0,11.0,16.0,74,0.00,,,0.00,190.0,meteohub,2017-07-24 15:16:00,
2017-07-24 08:21:00,57.9,48.9,28.86,North,0,13.0,16.0,72,0.00,,,0.00,304.0,meteohub,2017-07-24 15:21:00,
2017-07-24 08:26:00,58.3,49.3,28.85,North,0,12.0,14.0,72,0.00,,,0.00,387.0,meteohub,2017-07-24 15:26:00,
2017-07-24 08:31:00,58.5,49.8,28.85,North,0,13.0,14.0,73,0.00,,,0.00,422.0,meteohub,2017-07-24 15:31:00,
2017-07-24 08:36:00,58.6,48.6,28.85,North,0,12.0,14.0,69,0.00,,,0.00,436.0,meteohub,2017-07-24 15:36:00,
2017-07-24 08:41:00,58.6,50.7,28.85,North,0,12.0,14.0,75,0.00,,,0.00,454.0,meteohub,2017-07-24 15:41:00,
2017-07-24 08:43:00,58.6,50.4,28.85,North,0,12.0,14.0,74,0.00,,,0.00,455.0,meteohub,2017-07-24 15:43:00,
2017-07-24 08:48:00,58.6,50.4,28.85,North,0,13.0,14.0,74,0.00,,,0.00,471.0,meteohub,2017-07-24 15:48:00,
2017-07-24 08:53:00,58.8,49.5,28.85,North,0,12.0,14.0,71,0.00,,,0.00,485.0,meteohub,2017-07-24 15:53:00,
2017-07-24 08:58:00,59.4,50.0,28.85,North,0,11.0,14.0,71,0.00,,,0.00,499.0,meteohub,2017-07-24 15:58:00,
2017-07-24 09:01:00,59.5,50.2,28.84,North,0,11.0,14.0,71,0.00,,,0.00,506.0,meteohub,2017-07-24 16:01:00,
2017-07-24 09:06:00,59.4,50.7,28.84,North,0,12.0,14.0,73,0.00,,,0.00,520.0,meteohub,2017-07-24 16:06:00,
2017-07-24 09:11:00,59.2,50.5,28.84,North,0,14.0,14.0,73,0.00,,,0.00,533.0,meteohub,2017-07-24 16:11:00,
2017-07-24 09:17:00,59.4,50.0,28.84,North,0,13.0,15.0,71,0.00,,,0.00,547.0,meteohub,2017-07-24 16:17:00,
2017-07-24 09:22:00,59.5,50.9,28.84,North,0,13.0,16.0,73,0.00,,,0.00,561.0,meteohub,2017-07-24 16:22:00,
2017-07-24 09:27:00,59.9,51.6,28.84,North,0,12.0,16.0,74,0.00,,,0.00,573.0,meteohub,2017-07-24 16:27:00,
2017-07-24 09:32:00,60.4,50.5,28.83,North,0,12.0,16.0,70,0.00,,,0.00,585.0,meteohub,2017-07-24 16:32:00,
2017-07-24 09:37:00,60.8,50.2,28.83,North,0,11.0,14.0,68,0.00,,,0.00,599.0,meteohub,2017-07-24 16:37:00,
2017-07-24 09:42:00,61.7,48.6,28.83,North,0,12.0,14.0,62,0.00,,,0.00,612.0,meteohub,2017-07-24 16:42:00,
2017-07-24 09:47:00,62.4,48.7,28.83,North,0,13.0,15.0,61,0.00,,,0.00,622.0,meteohub,2017-07-24 16:47:00,
2017-07-24 09:52:00,62.8,49.1,28.83,North,0,11.0,15.0,61,0.00,,,0.00,635.0,meteohub,2017-07-24 16:52:00,
2017-07-24 09:57:00,63.0,50.5,28.82,North,0,13.0,15.0,64,0.00,,,0.00,649.0,meteohub,2017-07-24 16:57:00,
2017-07-24 10:02:00,62.8,51.3,28.82,North,0,11.0,13.0,66,0.00,,,0.00,659.0,meteohub,2017-07-24 17:02:00,
2017-07-24 10:08:00,62.4,50.9,28.82,North,0,11.0,14.0,66,0.00,,,0.00,671.0,meteohub,2017-07-24 17:08:00,
2017-07-24 10:13:00,62.8,50.4,28.82,North,0,11.0,15.0,64,0.00,,,0.00,682.0,meteohub,2017-07-24 17:13:00,
2017-07-24 10:18:00,63.5,51.4,28.81,North,0,13.0,15.0,65,0.00,,,0.00,689.0,meteohub,2017-07-24 17:18:00,
2017-07-24 10:23:00,63.5,52.0,28.81,North,0,12.0,15.0,66,0.00,,,0.00,701.0,meteohub,2017-07-24 17:23:00,
2017-07-24 10:28:00,64.4,50.7,28.81,North,0,12.0,15.0,61,0.00,,,0.00,54.0,meteohub,2017-07-24 17:28:00,
2017-07-24 10:33:00,64.0,51.6,28.81,North,0,13.0,15.0,64,0.00,,,0.00,54.0,meteohub,2017-07-24 17:33:00,
2017-07-24 10:38:00,64.8,46.2,28.80,North,0,11.0,14.0,51,0.00,,,0.00,56.0,meteohub,2017-07-24 17:38:00,
2017-07-24 10:43:00,65.8,45.0,28.80,North,0,8.0,15.0,47,0.00,,,0.00,758.0,meteohub,2017-07-24 17:43:00,
2017-07-24 10:49:00,66.6,46.2,28.80,North,0,12.0,15.0,48,0.00,,,0.00,512.0,meteohub,2017-07-24 17:49:00,
2017-07-24 10:54:00,68.4,49.5,28.80,North,0,13.0,15.0,51,0.00,,,0.00,780.0,meteohub,2017-07-24 17:54:00,
2017-07-24 10:59:00,67.1,45.7,28.80,North,0,13.0,15.0,46,0.00,,,0.00,788.0,meteohub,2017-07-24 17:59:00,
2017-07-24 11:04:00,68.2,47.7,28.79,North,0,10.0,15.0,48,0.00,,,0.00,775.0,meteohub,2017-07-24 18:04:00,
2017-07-24 11:09:00,68.5,45.7,28.79,North,0,6.0,15.0,44,0.00,,,0.00,798.0,meteohub,2017-07-24 18:09:00,
2017-07-24 11:14:00,67.8,45.1,28.79,North,0,12.0,15.0,44,0.00,,,0.00,810.0,meteohub,2017-07-24 18:14:00,
2017-07-24 11:19:00,68.7,45.3,28.79,North,0,10.0,14.0,43,0.00,,,0.00,849.0,meteohub,2017-07-24 18:19:00,
2017-07-24 11:24:00,69.8,43.7,28.78,North,0,11.0,14.0,39,0.00,,,0.00,786.0,meteohub,2017-07-24 18:24:00,
2017-07-24 11:29:00,69.6,43.5,28.78,North,0,10.0,15.0,39,0.00,,,0.00,594.0,meteohub,2017-07-24 18:29:00,
2017-07-24 11:34:00,70.2,44.8,28.78,North,0,9.0,15.0,40,0.00,,,0.00,861.0,meteohub,2017-07-24 18:34:00,
2017-07-24 11:39:00,70.5,43.0,28.78,North,0,11.0,15.0,37,0.00,,,0.00,849.0,meteohub,2017-07-24 18:39:00,
2017-07-24 11:44:00,71.1,44.8,28.78,North,0,11.0,14.0,39,0.00,,,0.00,847.0,meteohub,2017-07-24 18:44:00,
2017-07-24 11:49:00,71.8,42.6,28.77,North,0,8.0,14.0,35,0.00,,,0.00,847.0,meteohub,2017-07-24 18:49:00,
2017-07-24 11:54:00,71.1,46.8,28.77,North,0,10.0,14.0,42,0.00,,,0.00,853.0,meteohub,2017-07-24 18:54:00,
2017-07-24 11:59:00,70.9,43.3,28.77,North,0,10.0,12.0,37,0.00,,,0.00,856.0,meteohub,2017-07-24 18:59:00,
2017-07-24 12:04:00,71.1,42.8,28.77,North,0,8.0,12.0,36,0.00,,,0.00,860.0,meteohub,2017-07-24 19:04:00,
2017-07-24 12:09:00,71.4,47.8,28.77,North,0,9.0,12.0,43,0.00,,,0.00,865.0,meteohub,2017-07-24 19:09:00,
2017-07-24 12:14:00,71.8,45.5,28.77,North,0,8.0,11.0,39,0.00,,,0.00,867.0,meteohub,2017-07-24 19:14:00,
2017-07-24 12:19:00,71.8,46.8,28.76,North,0,9.0,11.0,41,0.00,,,0.00,874.0,meteohub,2017-07-24 19:19:00,
2017-07-24 12:24:00,72.7,42.6,28.76,North,0,10.0,10.0,34,0.00,,,0.00,877.0,meteohub,2017-07-24 19:24:00,
2017-07-24 12:29:00,73.8,42.8,28.76,North,0,10.0,11.0,33,0.00,,,0.00,881.0,meteohub,2017-07-24 19:29:00,
2017-07-24 12:34:00,73.2,43.2,28.76,North,0,11.0,11.0,34,0.00,,,0.00,884.0,meteohub,2017-07-24 19:34:00,
2017-07-24 12:39:00,73.8,44.4,28.75,North,0,5.0,13.0,35,0.00,,,0.00,886.0,meteohub,2017-07-24 19:39:00,
2017-07-24 12:44:00,74.1,44.8,28.75,North,0,8.0,13.0,35,0.00,,,0.00,889.0,meteohub,2017-07-24 19:44:00,
2017-07-24 12:49:00,74.7,43.7,28.75,North,0,6.0,15.0,33,0.00,,,0.00,893.0,meteohub,2017-07-24 19:49:00,
2017-07-24 12:54:00,74.8,44.6,28.75,North,0,8.0,15.0,34,0.00,,,0.00,905.0,meteohub,2017-07-24 19:54:00,
2017-07-24 12:59:00,74.8,43.0,28.74,North,0,6.0,10.0,32,0.00,,,0.00,942.0,meteohub,2017-07-24 19:59:00,
2017-07-24 13:04:00,74.8,47.5,28.74,North,0,9.0,10.0,38,0.00,,,0.00,846.0,meteohub,2017-07-24 20:04:00,
2017-07-24 13:09:00,73.9,45.3,28.74,North,0,8.0,11.0,36,0.00,,,0.00,545.0,meteohub,2017-07-24 20:09:00,
2017-07-24 13:14:00,73.9,44.6,28.74,North,0,9.0,12.0,35,0.00,,,0.00,853.0,meteohub,2017-07-24 20:14:00,
2017-07-24 13:19:00,74.3,44.1,28.74,North,0,8.0,12.0,34,0.00,,,0.00,809.0,meteohub,2017-07-24 20:19:00,
2017-07-24 13:24:00,74.7,42.8,28.74,North,0,9.0,11.0,32,0.00,,,0.00,951.0,meteohub,2017-07-24 20:24:00,
2017-07-24 13:29:00,75.4,44.2,28.74,North,0,6.0,11.0,33,0.00,,,0.00,914.0,meteohub,2017-07-24 20:29:00,
2017-07-24 13:34:00,75.9,45.5,28.73,North,0,5.0,11.0,34,0.00,,,0.00,902.0,meteohub,2017-07-24 20:34:00,
2017-07-24 13:39:00,76.1,48.0,28.73,North,0,4.0,10.0,37,0.00,,,0.00,902.0,meteohub,2017-07-24 20:39:00,
2017-07-24 13:44:00,75.9,45.5,28.73,North,0,8.0,9.0,34,0.00,,,0.00,904.0,meteohub,2017-07-24 20:44:00,
2017-07-24 13:49:00,75.7,47.7,28.73,North,0,8.0,10.0,37,0.00,,,0.00,907.0,meteohub,2017-07-24 20:49:00,
2017-07-24 13:54:00,76.3,41.7,28.73,North,0,9.0,10.0,29,0.00,,,0.00,847.0,meteohub,2017-07-24 20:54:00,
2017-07-24 13:59:00,77.4,40.8,28.73,North,0,8.0,10.0,27,0.00,,,0.00,926.0,meteohub,2017-07-24 20:59:00,
2017-07-24 14:04:00,78.1,45.9,28.72,North,0,8.0,10.0,32,0.00,,,0.00,1039.0,meteohub,2017-07-24 21:04:00,
2017-07-24 14:09:00,77.5,43.7,28.73,North,0,4.0,10.0,30,0.00,,,0.00,744.0,meteohub,2017-07-24 21:09:00,
2017-07-24 14:14:00,77.5,42.8,28.72,North,0,4.0,9.0,29,0.00,,,0.00,396.0,meteohub,2017-07-24 21:14:00,
2017-07-24 14:19:00,77.7,43.0,28.72,North,0,5.0,9.0,29,0.00,,,0.00,1042.0,meteohub,2017-07-24 21:19:00,
2017-07-24 14:24:00,78.4,41.7,28.72,North,0,6.0,9.0,27,0.00,,,0.00,853.0,meteohub,2017-07-24 21:24:00,
2017-07-24 14:29:00,79.0,42.1,28.72,North,0,4.0,8.0,27,0.00,,,0.00,849.0,meteohub,2017-07-24 21:29:00,
2017-07-24 14:34:00,79.2,41.4,28.72,North,0,4.0,8.0,26,0.00,,,0.00,877.0,meteohub,2017-07-24 21:34:00,
2017-07-24 14:39:00,79.3,44.2,28.71,North,0,5.0,8.0,29,0.00,,,0.00,861.0,meteohub,2017-07-24 21:39:00,
2017-07-24 14:44:00,79.2,45.1,28.71,North,0,5.0,6.0,30,0.00,,,0.00,853.0,meteohub,2017-07-24 21:44:00,
2017-07-24 14:49:00,79.0,44.1,28.71,North,0,5.0,8.0,29,0.00,,,0.00,846.0,meteohub,2017-07-24 21:49:00,
2017-07-24 14:54:00,79.2,41.4,28.71,North,0,5.0,8.0,26,0.00,,,0.00,838.0,meteohub,2017-07-24 21:54:00,
2017-07-24 14:59:00,79.3,45.1,28.71,North,0,0.0,8.0,30,0.00,,,0.00,835.0,meteohub,2017-07-24 21:59:00,
2017-07-24 15:04:00,80.6,41.5,28.70,North,0,5.0,11.0,25,0.00,,,0.00,824.0,meteohub,2017-07-24 22:04:00,
2017-07-24 15:09:00,81.5,42.3,28.70,North,0,5.0,11.0,25,0.00,,,0.00,821.0,meteohub,2017-07-24 22:09:00,
2017-07-24 15:14:00,81.5,43.3,28.70,North,0,4.0,14.0,26,0.00,,,0.00,814.0,meteohub,2017-07-24 22:14:00,
2017-07-24 15:20:00,81.5,42.3,28.70,North,0,5.0,14.0,25,0.00,,,0.00,810.0,meteohub,2017-07-24 22:20:00,
2017-07-24 15:25:00,81.9,42.6,28.69,North,0,8.0,14.0,25,0.00,,,0.00,807.0,meteohub,2017-07-24 22:25:00,
2017-07-24 15:30:00,81.9,42.6,28.69,North,0,11.0,17.0,25,0.00,,,0.00,854.0,meteohub,2017-07-24 22:30:00,
2017-07-24 15:35:00,82.0,41.7,28.69,North,0,9.0,17.0,24,0.00,,,0.00,826.0,meteohub,2017-07-24 22:35:00,
2017-07-24 15:40:00,82.2,43.9,28.69,North,0,6.0,18.0,26,0.00,,,0.00,816.0,meteohub,2017-07-24 22:40:00,
2017-07-24 15:45:00,82.0,43.7,28.69,North,0,12.0,18.0,26,0.00,,,0.00,805.0,meteohub,2017-07-24 22:45:00,
2017-07-24 15:50:00,82.6,44.2,28.69,North,0,4.0,21.0,26,0.00,,,0.00,733.0,meteohub,2017-07-24 22:50:00,
2017-07-24 15:55:00,82.4,43.0,28.69,North,0,8.0,21.0,25,0.00,,,0.00,701.0,meteohub,2017-07-24 22:55:00,
2017-07-24 16:00:00,82.6,43.2,28.69,North,0,18.0,21.0,25,0.00,,,0.00,211.0,meteohub,2017-07-24 23:00:00,
2017-07-24 16:05:00,81.9,43.7,28.68,North,0,8.0,20.0,26,0.00,,,0.00,534.0,meteohub,2017-07-24 23:05:00,
2017-07-24 16:10:00,81.9,43.7,28.68,North,0,11.0,24.0,26,0.00,,,0.00,563.0,meteohub,2017-07-24 23:10:00,
2017-07-24 16:15:00,82.0,44.8,28.68,North,0,8.0,24.0,27,0.00,,,0.00,840.0,meteohub,2017-07-24 23:15:00,
2017-07-24 16:21:00,82.0,43.7,28.68,North,0,17.0,24.0,26,0.00,,,0.00,603.0,meteohub,2017-07-24 23:21:00,
2017-07-24 16:26:00,82.0,46.6,28.67,North,0,9.0,23.0,29,0.00,,,0.00,308.0,meteohub,2017-07-24 23:26:00,
2017-07-24 16:31:00,82.0,44.8,28.68,North,0,13.0,23.0,27,0.00,,,0.00,563.0,meteohub,2017-07-24 23:31:00,
2017-07-24 16:36:00,81.9,44.6,28.67,North,0,22.0,24.0,27,0.00,,,0.00,339.0,meteohub,2017-07-24 23:36:00,
2017-07-24 16:41:00,81.7,45.3,28.67,North,0,20.0,25.0,28,0.00,,,0.00,645.0,meteohub,2017-07-24 23:41:00,
2017-07-24 16:46:00,82.0,46.6,28.68,North,0,3.0,25.0,29,0.00,,,0.00,738.0,meteohub,2017-07-24 23:46:00,
2017-07-24 16:51:00,81.9,45.5,28.67,North,0,19.0,25.0,28,0.00,,,0.00,673.0,meteohub,2017-07-24 23:51:00,
2017-07-24 16:56:00,81.7,45.3,28.67,North,0,20.0,25.0,28,0.00,,,0.00,657.0,meteohub,2017-07-24 23:56:00,
2017-07-24 17:01:00,81.7,45.3,28.67,North,0,22.0,28.0,28,0.00,,,0.00,613.0,meteohub,2017-07-25 00:01:00,
2017-07-24 17:06:00,81.7,46.4,28.67,North,0,24.0,28.0,29,0.00,,,0.00,591.0,meteohub,2017-07-25 00:06:00,
2017-07-24 17:12:00,81.1,45.9,28.67,North,0,11.0,28.0,29,0.00,,,0.00,570.0,meteohub,2017-07-25 00:12:00,
2017-07-24 17:17:00,81.1,46.8,28.67,North,0,22.0,26.0,30,0.00,,,0.00,554.0,meteohub,2017-07-25 00:17:00,
2017-07-24 17:22:00,80.8,47.3,28.67,North,0,30.0,30.0,31,0.00,,,0.00,540.0,meteohub,2017-07-25 00:22:00,
2017-07-24 17:27:00,80.8,47.3,28.67,North,0,22.0,26.0,31,0.00,,,0.00,529.0,meteohub,2017-07-25 00:27:00,
2017-07-24 17:32:00,80.6,47.1,28.66,North,0,15.0,30.0,31,0.00,,,0.00,524.0,meteohub,2017-07-25 00:32:00,
2017-07-24 17:37:00,80.4,46.9,28.67,North,0,22.0,30.0,31,0.00,,,0.00,489.0,meteohub,2017-07-25 00:37:00,
2017-07-24 17:42:00,80.4,47.8,28.67,North,0,16.0,25.0,32,0.00,,,0.00,487.0,meteohub,2017-07-25 00:42:00,
2017-07-24 17:47:00,80.2,47.7,28.66,North,0,3.0,28.0,32,0.00,,,0.00,468.0,meteohub,2017-07-25 00:47:00,
2017-07-24 17:52:00,80.2,48.6,28.67,North,0,17.0,28.0,33,0.00,,,0.00,450.0,meteohub,2017-07-25 00:52:00,
2017-07-24 17:53:00,80.2,48.6,28.67,North,0,18.0,28.0,33,0.00,,,0.00,446.0,meteohub,2017-07-25 00:53:00,
2017-07-24 17:58:00,80.1,49.1,28.67,North,0,12.0,27.0,34,0.00,,,0.00,432.0,meteohub,2017-07-25 00:58:00,
2017-07-24 18:02:00,80.1,50.0,28.67,North,0,10.0,27.0,35,0.00,,,0.00,420.0,meteohub,2017-07-25 01:02:00,
2017-07-24 18:08:00,79.9,48.9,28.67,North,0,13.0,27.0,34,0.00,,,0.00,355.0,meteohub,2017-07-25 01:08:00,
2017-07-24 18:13:00,79.3,50.0,28.67,North,0,10.0,24.0,36,0.00,,,0.00,30.0,meteohub,2017-07-25 01:13:00,
2017-07-24 18:18:00,79.3,50.0,28.67,North,0,19.0,24.0,36,0.00,,,0.00,32.0,meteohub,2017-07-25 01:18:00,
2017-07-24 18:23:00,79.2,50.7,28.67,North,0,20.0,24.0,37,0.00,,,0.00,32.0,meteohub,2017-07-25 01:23:00,
2017-07-24 18:28:00,79.0,50.5,28.67,North,0,17.0,24.0,37,0.00,,,0.00,28.0,meteohub,2017-07-25 01:28:00,
2017-07-24 18:33:00,78.6,50.9,28.67,North,0,18.0,24.0,38,0.00,,,0.00,26.0,meteohub,2017-07-25 01:33:00,
2017-07-24 18:38:00,78.6,51.6,28.67,North,0,11.0,24.0,39,0.00,,,0.00,26.0,meteohub,2017-07-25 01:38:00,